Flag for U.S.A. Weather past 2 weeks in Garland, Texas, U.S.A.

Now
82 °F

Sunny.


Feels Like: 86 °F
Forecast: 74 / 94 °F
Wind: 6 mph from South

Location: Mesquite Metro Airport

Current Time: Aug 28, 2014 at 10:18:14 AM

Latest Report: Aug 28, 2014 at 9:47 AM


Visibility: 10 mi

Pressure: 29.99 "Hg

Humidity: 66%

Dew point: 70 °F

Location of GarlandLocation

Historic Weather in Garland — Graph

°F

Garland temperature yesterday

Maximum temperature yesterday: 93 °F (at 2:50 PM)
Minimum temperature yesterday: 73 °F (at 5:35 AM)
Average temperature yesterday: 81 °F

Past Weeks' High & Low Weather Summary

 TemperatureHumidityPressure
High102 °F (Aug 16, 4:59 PM)100% (Aug 17, 10:50 AM)30.12 "Hg (Aug 17, 10:50 AM)
Low64 °F (Aug 14, 6:50 AM)22% (Aug 22, 4:50 PM)29.85 "Hg (Aug 19, 5:50 PM)
Average81 °F65%29.96 "Hg
* Reported Aug 13 8:50 AM — Aug 28 8:47 AM, Garland, Weather by CustomWeather, © 2014

Note: Actual official high and low records may vary slightly from our data, if they occured in-between our weather recording intervals... More about our weather records

Advertising

Garland weather history for previous 24 hours

 ConditionsComfort  
Time TempWeatherWind HumidityBarometerVisibility
8:47 AM
Aug 28
79 °FSunny.3 mph70%29.99 "Hg10 mi
7:47 AM72 °FClear.No wind83%29.97 "Hg10 mi
6:47 AM70 °FClear.3 mph83%29.97 "Hg10 mi
5:35 AM71 °FPassing clouds.No wind79%29.96 "Hg10 mi
5:15 AM71 °FPassing clouds.No wind75%29.96 "Hg10 mi
4:55 AM70 °FClear.No wind77%29.96 "Hg10 mi
4:35 AM71 °FClear.No wind70%29.97 "Hg10 mi
4:15 AM71 °FPassing clouds.No wind69%29.97 "Hg10 mi
3:55 AM72 °FPassing clouds.No wind68%29.97 "Hg10 mi
3:35 AM72 °FClear.No wind67%29.97 "Hg10 mi
2:55 AM71 °FClear.No wind71%29.97 "Hg10 mi
2:35 AM70 °FClear.No wind73%29.98 "Hg10 mi
2:15 AM71 °FClear.No wind68%29.99 "Hg10 mi
1:55 AM72 °FClear.No wind67%29.99 "Hg10 mi
1:35 AM73 °FClear.No wind62%29.99 "Hg10 mi
12:55 AM74 °FClear.No wind60%29.99 "Hg10 mi
12:35 AM74 °FClear.No wind60%30.00 "Hg10 mi
12:15 AM75 °FClear.3 mph59%30.00 "Hg10 mi
11:55 PM
Aug 27
75 °FClear.No wind58%29.99 "Hg10 mi
11:35 PM76 °FClear.No wind56%30.00 "Hg10 mi
11:15 PM76 °FClear.No wind59%29.99 "Hg10 mi
10:55 PM77 °FClear.No wind56%29.99 "Hg10 mi
10:35 PM78 °FClear.No wind55%29.99 "Hg10 mi
10:15 PM79 °FClear.3 mph52%29.99 "Hg10 mi
9:55 PM80 °FClear.No wind51%29.99 "Hg10 mi
7:48 PM88 °FSunny.6 mph38%29.96 "Hg10 mi
6:55 PM90 °FSunny.8 mph33%29.96 "Hg10 mi
5:55 PM93 °FSunny.8 mph32%29.96 "Hg10 mi
4:50 PM93 °FScattered clouds.7 mph34%29.97 "Hg10 mi
3:55 PM93 °FScattered clouds.10 mph36%29.99 "Hg10 mi
2:50 PM93 °FScattered clouds.6 mph36%30.01 "Hg10 mi
1:47 PM91 °FScattered clouds.9 mph38%30.04 "Hg10 mi
12:50 PM90 °FPartly sunny.9 mph43%30.05 "Hg10 mi
11:50 AM90 °FPartly sunny.5 mph43%30.08 "Hg10 mi
10:47 AM88 °FSunny.No wind46%30.08 "Hg10 mi
Weather by CustomWeather, © 2014

See weather overviewHow to use our weather pages